GFSSGP_700_spd_000.txt.gz
Wind_Speed
16 15 14 11 4 3 7 8 6 5 1 7 2 4 2 3 1 3 5 6 6 7 10 8 7 7 7 7 9 10 11 10 9 9 9 9 8 8 8 8 9 8 8 8 8 6 4 5 7
15 15 13 10 3 8 8 9 12 9 6 9 8 6 2 5 3 2 6 2 4 10 12 10 8 6 7 8 9 11 11 10 10 9 9 8 8 8 8 8 9 10 10 10 8 6 6 6 6
13 14 11 5 7 8 11 11 9 6 3 7 4 11 8 4 3 2 4 7 6 7 9 9 7 6 7 8 8 9 9 10 10 10 9 9 9 9 9 9 10 11 11 11 11 10 9 7 8
11 12 6 6 3 2 6 10 7 5 2 5 8 10 9 6 4 5 4 2 4 6 6 7 5 4 6 6 8 7 8 9 10 11 12 12 13 12 12 11 10 10 12 13 12 13 11 11 11
12 9 5 7 4 4 7 9 7 6 4 2 3 10 2 2 4 3 2 1 4 8 8 6 6 3 2 4 5 9 11 13 14 14 14 14 15 16 16 16 15 13 12 12 13 13 15 14 12
14 11 8 11 9 6 9 10 8 5 6 11 10 11 5 4 3 3 2 3 5 7 8 8 7 5 5 6 8 9 10 14 15 16 16 17 18 19 19 19 16 15 13 13 14 14 15 15 15
15 11 11 8 11 9 7 8 6 8 8 10 4 8 7 6 6 5 3 4 4 6 7 9 8 8 7 7 7 7 8 9 12 14 15 17 16 18 17 17 18 17 16 13 13 14 15 17 18
17 12 8 8 6 7 15 10 13 9 16 18 12 9 11 9 7 5 3 2 0 2 3 6 6 7 7 10 9 9 11 14 15 17 20 20 21 20 21 18 17 17 17 15 15 15 16 16 18
12 11 6 8 9 11 19 16 12 16 19 20 22 16 4 8 8 7 6 4 3 2 2 2 4 6 9 10 11 13 15 16 18 19 20 21 22 22 21 20 18 19 20 21 20 19 19 18 17
12 12 6 6 11 13 20 17 14 15 20 17 19 17 14 11 11 11 9 8 6 5 5 5 5 8 10 12 13 15 17 19 21 21 22 23 24 24 23 24 23 22 22 23 22 20 21 21 20
13 11 14 15 19 17 18 14 16 14 19 18 20 20 18 16 15 13 12 11 10 8 7 7 8 10 11 13 14 16 19 21 24 26 26 27 28 28 27 27 27 25 24 22 21 21 19 19 20
15 16 19 17 17 19 19 17 19 16 17 20 22 21 21 20 19 17 16 15 12 10 11 13 12 14 15 16 18 20 22 24 28 30 29 30 30 31 31 30 29 29 28 27 26 26 24 22 21
13 20 17 20 17 18 19 23 21 21 21 19 16 18 23 23 21 20 20 20 17 16 17 18 18 19 19 20 22 24 28 30 34 36 36 36 34 34 33 33 33 32 31 30 29 27 28 28 28
11 20 18 19 18 19 20 22 23 21 20 23 22 23 24 25 24 23 24 23 22 21 22 23 24 25 25 27 29 31 33 36 39 40 41 40 40 39 37 36 37 36 35 34 34 33 33 34 34
16 18 19 20 19 19 18 26 26 23 21 24 24 25 26 26 26 26 29 27 27 26 27 27 29 30 31 31 33 36 37 41 43 43 43 42 42 41 41 41 40 40 40 39 38 38 38 38 40
12 12 16 18 16 18 18 26 14 20 20 23 24 27 27 25 26 30 29 31 32 32 34 32 34 34 35 35 38 40 41 43 43 43 42 42 41 42 42 41 43 44 44 44 45 44 42 43 43
11 12 17 16 19 19 23 22 14 27 20 22 27 28 29 26 27 29 28 30 32 36 35 35 36 37 39 40 41 41 42 42 41 42 41 41 43 43 42 42 42 43 45 47 48 50 52 52 50
13 18 14 20 21 20 23 22 21 26 27 24 25 28 30 29 25 27 27 29 32 34 35 36 37 38 39 39 39 39 40 40 40 39 41 42 43 44 44 45 45 47 48 49 51 53 55 56 59
16 15 9 12 18 21 27 30 28 29 32 31 29 31 31 30 30 32 31 31 32 31 32 33 32 33 34 34 36 38 38 39 40 41 42 43 43 45 46 48 50 51 53 54 55 56 58 59 61
20 19 17 13 21 22 28 33 32 30 33 27 24 27 31 31 34 35 32 29 30 31 33 30 31 30 33 33 34 35 36 38 40 43 45 45 45 46 48 49 50 53 55 57 59 59 59 58 57
24 22 17 16 15 21 26 35 25 18 27 30 24 24 28 30 33 34 31 24 26 28 28 27 28 29 30 31 33 33 35 38 40 42 43 45 47 47 48 50 52 54 55 56 57 55 55 56 54
22 18 18 20 16 12 8 12 23 14 24 21 20 20 19 23 28 30 27 20 21 22 24 22 25 27 31 33 31 33 36 37 39 41 43 45 46 47 49 51 53 55 54 53 49 48 47 45 48
22 17 18 17 16 18 25 16 20 6 16 17 20 19 14 19 22 21 25 23 21 21 20 22 24 29 31 31 32 35 35 38 40 42 44 45 46 47 49 50 52 51 46 43 44 44 45 44 44
20 19 19 19 16 12 25 25 29 18 18 11 17 16 19 18 22 21 21 23 22 21 23 23 25 30 31 31 33 35 37 39 40 42 43 44 46 47 47 48 46 41 40 40 41 43 44 45 40
30 20 5 6 6 8 14 24 35 7 13 12 22 26 23 22 21 20 20 21 23 24 25 27 30 32 30 32 33 35 38 39 40 42 43 44 46 46 45 44 39 37 37 36 37 41 42 42 38
36 33 16 6 7 12 13 10 16 17 15 18 28 29 26 22 19 19 18 21 26 27 30 30 32 30 30 31 33 35 37 39 41 42 43 44 45 44 41 36 35 36 36 35 35 40 41 38 36
25 31 33 28 32 17 24 29 27 24 36 27 21 24 25 14 14 15 20 22 25 29 33 31 33 31 30 30 32 35 36 38 40 41 43 43 43 41 38 34 35 36 37 36 38 39 39 41 35
34 13 16 21 5 8 14 23 19 19 20 24 23 24 18 15 18 19 21 23 26 29 30 33 32 29 30 31 34 35 36 38 39 41 41 41 40 39 35 35 37 37 36 37 37 38 39 40 41
36 41 23 24 25 4 10 13 23 27 16 18 18 20 19 18 21 26 25 24 27 28 30 32 29 29 31 33 35 35 36 38 38 39 39 39 38 34 33 35 37 38 37 36 37 37 39 39 38
43 43 49 26 18 30 36 37 27 20 26 30 28 25 26 22 23 30 30 30 29 27 29 28 28 30 32 34 34 34 36 37 38 37 37 37 34 32 33 35 38 38 35 36 35 36 36 39 37

GFSSGP_700_spd_003.txt.gz
Wind_Speed
18 18 18 11 3 3 8 6 5 5 4 1 4 7 3 1 1 2 3 2 5 5 6 9 8 6 7 8 10 10 10 11 12 10 9 9 10 10 9 9 10 10 10 11 11 9 7 6 6
17 16 14 11 4 5 8 13 12 11 8 2 7 6 1 0 1 2 8 4 7 5 7 8 5 6 7 9 8 10 11 12 12 12 12 11 10 10 10 10 9 9 9 10 10 10 9 8 9
17 15 13 10 3 4 11 13 13 10 10 8 9 8 10 8 3 3 7 3 4 6 6 4 5 6 7 9 9 11 13 13 14 14 14 12 13 13 13 12 10 10 9 8 8 9 9 9 9
15 14 12 5 4 5 9 9 7 9 9 11 10 9 13 11 7 4 4 4 2 1 3 5 7 10 9 7 7 10 11 13 15 15 15 14 15 16 17 17 15 12 11 9 9 8 8 8 8
12 13 9 6 4 4 6 7 7 4 5 11 14 12 8 6 6 5 5 4 2 2 6 7 6 5 3 4 5 6 6 7 9 11 12 13 14 16 17 16 15 14 12 11 11 11 10 9 7
13 13 10 8 13 14 13 10 9 12 11 11 12 10 9 6 7 7 6 3 2 5 7 8 8 5 3 2 4 7 9 10 12 13 14 16 17 16 16 17 16 15 14 13 11 11 12 12 11
16 16 14 6 15 15 11 8 11 11 15 16 16 10 10 9 8 7 7 4 2 3 5 6 7 8 9 9 8 9 10 13 15 18 20 20 20 19 18 18 18 16 14 14 13 12 12 13 12
17 18 18 6 9 9 12 8 12 14 15 14 14 8 7 9 9 9 8 4 3 4 1 2 3 4 7 10 11 12 13 15 17 19 21 23 24 23 23 20 18 17 18 18 17 15 14 14 15
15 14 14 6 9 12 13 10 10 15 18 18 19 15 6 12 12 10 9 7 6 6 5 5 4 5 8 10 11 12 13 14 15 17 20 22 23 24 24 24 22 22 21 20 19 17 16 17 17
14 16 15 10 12 16 14 15 15 18 20 20 19 19 16 14 14 13 10 9 8 8 7 7 8 8 9 10 11 12 13 16 16 17 20 22 23 25 25 25 25 23 22 22 21 19 18 18 17
14 15 19 13 12 15 18 21 18 18 19 17 18 21 22 19 17 16 13 11 11 10 10 11 10 11 12 13 14 15 16 18 21 24 26 28 27 26 24 24 25 24 22 21 21 22 22 22 20
15 15 18 16 15 19 22 23 22 19 20 17 19 21 23 23 21 19 17 15 14 15 14 14 14 15 17 18 19 21 23 23 26 30 32 34 33 31 28 27 26 26 26 26 25 24 24 23 23
15 18 19 18 17 21 22 23 23 22 23 20 18 15 22 25 24 22 21 20 20 18 18 18 19 20 22 24 24 26 28 30 32 35 36 37 34 31 30 28 28 28 28 28 26 26 25 25 26
16 17 19 17 17 19 21 22 24 22 22 21 22 22 23 25 24 25 24 25 23 22 22 23 24 26 27 28 30 29 32 34 37 39 38 36 33 32 31 33 33 32 31 30 29 28 28 28 29
15 17 20 20 19 22 20 26 28 19 24 24 25 25 27 26 26 26 26 29 27 24 25 28 29 29 30 32 34 34 35 37 40 39 37 35 35 35 37 38 37 35 34 33 33 32 33 33 34
15 18 22 18 20 20 20 29 22 20 25 20 24 25 27 27 26 27 29 28 27 26 27 30 32 33 33 35 36 37 37 39 38 36 35 35 36 38 39 39 41 41 41 40 38 38 37 38 39
18 19 20 20 20 18 22 25 20 21 26 23 23 24 27 28 28 29 28 26 27 27 28 30 32 33 33 35 35 36 36 35 34 34 33 35 36 37 37 39 40 41 41 41 42 43 45 47 48
21 19 16 16 21 25 28 30 28 19 24 23 23 25 27 27 27 27 28 27 25 28 29 31 31 32 31 33 33 33 33 33 33 32 33 34 36 37 38 39 39 40 40 41 43 45 48 50 54
11 12 15 13 11 23 24 31 27 26 29 29 29 30 29 29 24 26 27 27 29 29 31 32 31 30 30 31 31 31 32 31 32 31 33 34 35 37 38 39 40 40 43 45 47 50 53 55 56
18 24 27 25 22 19 24 38 32 31 34 28 27 28 29 28 30 31 30 30 30 29 31 34 32 30 30 30 29 29 29 31 31 32 33 34 36 37 38 38 40 42 44 47 50 53 55 57 57
23 26 27 25 20 18 22 38 36 33 27 27 27 26 29 29 30 30 28 26 28 29 30 31 30 30 27 27 26 28 30 29 30 32 34 36 38 38 38 39 42 44 47 50 53 54 51 51 47
30 28 27 24 25 22 23 28 23 15 21 23 23 23 18 21 24 25 24 22 20 23 28 29 28 23 23 23 26 28 29 29 30 32 35 37 37 37 38 41 43 46 49 50 49 46 45 44 46
30 25 24 23 29 29 29 15 25 13 24 26 24 17 17 14 16 21 23 17 19 24 27 26 21 23 23 24 26 28 28 29 30 32 34 35 36 37 39 42 44 47 47 43 39 38 39 41 44
25 21 22 22 21 14 25 19 56 34 34 26 21 24 19 13 14 20 22 23 20 22 25 22 21 22 25 27 29 28 28 29 31 33 34 35 36 37 39 42 43 43 39 34 33 35 36 38 40
26 26 6 6 6 12 22 22 49 25 17 18 18 15 19 18 26 22 23 21 19 21 22 23 23 24 27 27 29 28 29 30 32 33 34 35 36 38 40 41 41 37 32 31 32 34 34 35 37
40 38 20 8 6 12 27 17 33 31 25 28 27 28 23 27 28 25 23 20 20 20 22 24 25 27 28 30 28 27 28 30 33 33 33 34 37 38 40 40 37 31 29 29 32 33 31 33 35
39 45 45 35 28 11 23 35 38 20 22 23 28 34 27 21 25 21 19 18 19 23 23 24 26 28 29 30 27 27 27 29 32 34 34 36 37 38 40 39 33 28 28 30 31 32 31 33 35
40 30 20 29 6 7 18 27 24 23 32 29 32 27 24 23 23 18 20 19 21 22 23 25 26 27 28 26 26 26 27 29 31 32 34 36 37 38 39 35 31 28 29 31 32 31 31 33 34
40 42 23 25 29 7 9 12 26 30 33 32 26 25 25 27 27 21 22 24 25 26 25 25 27 26 26 25 26 26 28 29 31 31 33 35 35 37 37 34 30 29 30 31 32 31 31 33 33
43 48 55 28 10 31 37 39 38 27 22 24 24 21 25 22 28 26 23 26 32 31 28 27 27 25 25 25 26 27 28 30 30 31 33 34 35 37 36 32 30 30 30 31 32 31 30 32 32

GFSSGP_700_spd_009.txt.gz
Wind_Speed
18 20 15 8 4 2 8 6 6 5 3 1 1 3 7 10 12 7 6 5 8 6 5 6 7 6 8 9 10 12 13 14 15 14 14 13 13 13 12 11 10 9 9 7 6 6 6 5 5
18 21 14 7 4 6 7 7 8 7 9 8 9 11 13 13 14 10 6 8 5 3 1 4 6 6 6 8 9 9 10 11 11 12 12 11 12 12 11 11 10 9 9 8 8 6 5 4 4
17 20 14 6 6 7 9 10 10 9 12 14 14 13 19 17 14 8 6 8 5 2 3 5 7 7 6 6 5 6 8 10 11 11 10 11 12 13 13 14 15 13 12 9 7 6 6 6 6
17 16 14 11 10 9 5 6 8 10 11 11 10 10 13 16 15 8 7 6 5 4 5 8 10 10 8 3 3 6 8 9 10 12 13 14 15 15 15 15 15 15 15 15 11 7 5 5 6
18 17 16 11 10 8 7 7 10 13 14 14 14 13 14 12 10 7 7 6 5 5 5 9 10 7 5 2 4 6 9 10 11 12 14 15 15 15 15 15 15 14 14 14 13 12 8 5 5
19 20 16 16 15 13 13 11 11 16 18 17 18 16 15 12 9 8 8 7 6 5 6 9 8 7 5 7 8 8 8 8 9 10 12 14 14 15 15 15 14 13 13 13 12 11 10 7 6
18 21 21 20 18 17 16 17 16 15 19 22 19 17 16 15 12 10 9 8 6 5 6 8 9 8 8 7 6 5 5 6 6 7 9 11 13 15 15 15 13 12 12 11 12 12 10 8 8
22 22 23 23 23 20 16 17 15 18 18 17 17 13 11 14 15 14 11 9 7 6 6 6 6 5 4 4 3 1 2 3 5 5 8 11 14 16 15 13 13 13 12 12 12 13 14 13 12
24 25 28 27 24 20 15 15 15 17 16 17 19 17 16 12 14 15 14 11 9 8 9 8 7 6 5 4 3 2 3 4 5 7 10 13 16 18 16 12 11 12 13 14 14 14 14 16 16
23 29 30 27 25 23 19 18 18 18 18 19 18 16 18 17 16 17 16 14 12 10 11 12 11 10 9 8 7 7 7 8 8 10 13 16 19 20 16 12 11 11 12 14 15 15 16 17 18
23 26 25 27 27 25 22 21 21 21 23 15 16 16 19 18 19 18 19 16 15 15 15 15 15 14 13 12 12 11 11 12 13 13 16 19 22 21 15 13 12 12 14 16 16 16 17 18 19
23 22 22 25 25 27 28 22 25 25 18 20 18 20 20 18 18 18 21 20 19 17 18 18 17 17 17 17 16 15 15 16 18 19 21 22 24 21 16 15 15 15 17 17 17 17 17 17 18
22 21 21 21 24 28 28 28 27 29 24 24 22 23 23 22 21 21 23 25 25 23 20 20 21 21 21 21 21 19 19 20 23 25 26 25 23 20 18 17 18 19 20 19 19 19 18 19 19
20 20 23 23 25 29 31 30 33 26 24 26 25 24 25 25 24 24 25 25 25 24 24 24 24 24 24 24 24 23 23 24 25 27 27 25 22 21 20 19 21 22 22 21 21 21 21 20 21
22 23 23 26 27 30 30 35 38 24 26 28 28 27 26 27 28 27 26 24 23 25 26 28 27 28 27 28 27 27 26 26 27 28 27 24 22 21 21 22 22 23 24 24 24 23 23 21 21
20 23 28 29 25 26 30 42 32 28 29 30 28 27 28 29 30 30 29 27 28 28 29 29 29 30 30 30 30 29 28 28 28 28 26 24 23 22 22 23 24 25 26 26 26 25 25 24 23
25 29 29 26 24 28 32 37 29 26 27 27 26 26 28 30 31 31 32 30 30 29 31 31 30 31 31 32 31 31 29 29 28 28 26 25 24 23 24 25 26 27 28 28 28 27 27 27 27
30 32 33 32 29 30 32 39 32 30 32 27 27 27 29 29 29 30 30 29 30 32 33 33 33 33 33 33 31 30 29 30 29 27 27 27 26 25 25 27 29 30 30 30 30 30 30 31 31
32 35 34 32 29 32 35 39 38 33 34 33 34 31 32 32 24 30 32 31 33 36 37 36 34 33 32 31 30 30 30 31 29 27 27 27 28 26 27 29 30 32 32 33 33 32 32 33 37
35 36 39 38 33 34 38 49 46 42 45 39 37 38 38 35 32 33 34 37 38 38 36 35 35 33 32 31 31 33 32 31 29 28 28 28 28 27 28 30 32 32 32 34 34 34 34 37 41
38 40 40 42 35 37 40 57 51 47 47 44 43 41 40 37 38 37 39 41 40 42 40 35 33 33 33 33 34 34 32 31 29 28 28 28 28 28 29 30 32 33 34 34 34 35 37 41 42
43 36 38 39 33 36 23 33 39 38 45 43 42 39 37 35 32 27 26 35 44 42 38 35 33 32 34 35 35 32 30 29 28 28 28 29 29 29 29 31 32 34 35 34 34 36 39 44 43
40 32 35 30 31 35 40 18 53 25 33 40 41 42 34 27 26 30 27 29 31 39 36 32 31 33 34 33 30 29 28 27 27 27 28 29 29 29 30 32 32 34 34 35 35 37 41 43 42
31 29 31 35 32 17 41 22 64 49 44 35 19 17 17 20 27 35 35 30 33 32 32 31 33 32 31 29 27 26 25 26 26 27 29 30 29 29 31 33 33 34 34 34 36 39 40 41 40
34 25 10 8 5 16 21 22 51 22 22 34 34 31 30 29 29 33 30 28 26 21 24 28 32 29 28 26 26 24 24 25 26 28 29 29 29 30 32 33 33 34 34 34 37 39 40 39 38
30 37 26 6 7 18 26 21 44 44 39 33 36 43 31 24 24 18 20 21 21 22 23 28 29 27 25 24 24 25 26 25 26 29 29 28 29 31 32 32 33 33 33 34 37 39 40 38 37
32 37 40 44 48 16 36 49 55 53 52 46 37 30 27 27 26 24 19 23 24 21 23 25 25 23 23 24 27 27 27 26 28 29 28 29 29 31 31 32 32 33 33 35 37 40 39 38 36
28 33 25 17 9 21 24 27 34 30 25 33 44 31 29 27 29 32 33 30 29 26 25 25 24 21 22 25 26 27 27 28 29 28 28 29 30 31 32 32 33 32 33 35 39 40 38 36 36
32 34 36 37 33 17 19 26 36 34 23 17 14 11 14 17 24 32 37 38 37 30 27 27 24 21 19 22 26 27 28 29 29 28 28 29 31 32 32 32 33 32 33 36 39 40 37 35 36
45 44 35 18 25 31 36 47 49 47 44 38 35 35 36 40 33 29 30 36 34 32 32 33 27 22 20 23 27 28 29 30 28 27 28 30 31 32 32 32 32 32 34 37 40 40 36 36 37

GFSSGP_700_spd_012.txt.gz
Wind_Speed
15 16 11 6 2 2 5 6 5 3 1 1 3 5 6 10 12 8 13 6 5 5 6 7 7 7 9 11 11 11 13 14 15 15 14 13 13 12 11 10 9 8 6 5 5 5 5 5 4
14 17 14 7 4 4 4 6 6 4 6 7 9 11 13 13 14 14 12 7 9 5 5 6 7 6 7 9 10 9 11 11 12 12 12 12 13 14 13 13 12 11 9 7 5 4 3 4 4
14 19 15 5 6 5 6 7 7 7 8 10 13 16 17 16 17 14 9 9 9 6 5 6 7 7 8 8 8 7 7 9 11 13 14 14 14 14 13 13 13 13 13 13 9 6 4 3 4
14 18 16 11 10 9 7 4 4 7 10 12 13 13 13 12 13 15 11 12 10 7 7 8 10 11 9 7 7 8 9 10 12 13 12 13 13 13 13 13 13 12 12 13 12 11 7 5 4
17 16 16 15 13 12 11 12 12 11 13 15 17 16 15 12 12 9 10 10 9 9 8 11 11 10 9 7 9 10 10 10 10 10 10 11 12 12 13 13 11 11 11 10 11 11 10 8 6
18 19 19 19 18 16 13 12 13 16 15 15 18 19 18 14 10 8 9 10 9 8 9 10 9 10 9 9 10 10 9 8 7 8 8 10 11 12 12 11 10 9 9 9 10 9 7 6 6
19 21 23 22 20 21 19 19 20 18 19 20 20 23 20 13 12 10 10 11 10 9 8 10 9 9 9 9 9 8 6 5 4 5 5 7 9 11 12 10 9 8 8 8 9 9 10 10 8
22 21 23 27 26 26 23 21 20 18 19 21 18 15 10 12 13 13 13 13 12 10 9 9 9 10 10 10 8 7 5 4 2 2 2 5 10 13 13 10 9 8 8 8 8 9 10 11 12
24 25 29 28 28 27 24 23 20 18 21 19 17 16 16 16 12 14 15 14 13 11 10 10 10 11 10 10 9 8 7 5 4 3 4 7 11 14 14 11 8 8 8 8 9 10 12 12 14
24 29 30 28 29 27 25 25 22 22 23 21 15 13 15 15 16 15 15 15 15 13 12 12 13 14 13 12 11 10 9 8 7 7 8 11 14 16 15 11 8 9 9 9 11 12 14 15 15
24 27 26 28 29 29 28 28 28 28 28 18 12 15 17 16 17 17 18 17 17 18 18 16 15 17 17 16 14 13 12 11 10 11 12 14 17 18 15 11 10 9 11 13 13 13 14 15 16
24 23 24 24 25 29 29 31 34 34 25 20 18 18 20 19 17 16 19 19 20 19 20 20 19 20 20 19 18 16 15 15 14 14 16 18 19 19 16 13 11 11 14 16 16 15 15 15 16
23 22 24 23 25 27 31 32 33 36 28 26 23 22 22 22 21 20 20 24 25 26 24 23 23 23 23 23 21 20 20 19 18 18 19 20 21 19 16 14 13 14 15 17 17 17 17 16 16
23 23 22 25 26 30 32 31 33 31 26 27 27 26 26 25 25 25 27 25 25 27 27 25 26 26 26 26 25 24 23 22 21 22 21 22 22 20 17 16 15 16 17 18 18 18 18 19 19
26 27 26 26 27 32 33 37 39 29 29 31 32 30 29 28 28 28 28 28 25 25 28 30 29 29 28 28 28 28 27 25 24 24 23 23 22 20 18 17 17 17 19 20 20 20 20 20 20
24 27 30 28 25 29 32 45 33 33 33 34 33 32 32 30 28 28 30 30 30 29 29 31 33 31 30 31 30 31 29 27 26 25 25 24 23 21 19 19 19 20 20 21 22 22 22 22 22
27 30 33 33 28 28 33 42 35 31 31 31 30 30 30 29 29 30 30 30 31 31 32 33 33 32 31 32 33 32 31 29 27 27 26 25 24 22 21 21 22 22 22 23 24 24 24 24 23
30 30 33 33 31 35 38 45 38 35 36 36 34 33 33 32 31 27 24 28 30 30 33 36 35 34 33 34 35 33 31 29 28 29 28 27 26 24 23 24 24 24 25 25 26 26 26 26 25
34 37 40 38 35 41 43 48 45 39 41 39 38 37 35 36 30 31 29 29 30 33 36 39 38 36 35 35 34 32 30 30 31 31 30 28 27 25 24 25 25 27 27 27 28 28 28 29 28
32 37 41 41 37 43 46 57 52 47 49 46 42 42 40 38 35 36 35 35 36 35 35 39 39 37 36 35 34 34 32 34 33 32 30 30 29 27 26 27 27 28 29 29 29 30 30 29 31
30 34 39 45 42 45 47 67 56 53 49 48 44 39 38 39 38 36 38 38 40 41 38 40 39 36 34 33 36 35 35 35 34 31 32 32 29 27 27 28 29 29 31 31 31 32 31 30 32
38 32 35 35 32 32 35 36 40 41 49 45 39 30 29 30 28 28 33 37 38 40 41 44 41 39 37 35 36 37 35 35 33 33 34 31 29 28 29 30 30 30 31 31 32 33 33 32 32
39 33 27 33 36 38 38 17 65 14 41 48 50 35 23 21 26 31 29 29 29 34 35 34 40 40 37 35 35 36 36 35 34 33 32 29 29 29 30 30 30 31 32 32 33 33 34 33 33
31 30 26 29 28 15 40 18 70 50 36 30 11 7 27 28 21 25 27 29 32 36 39 40 40 40 37 35 36 35 34 33 33 31 30 29 29 30 30 30 31 31 32 33 33 34 34 34 35
31 34 11 5 5 12 14 20 62 29 19 29 33 36 32 33 35 30 30 34 29 33 35 35 36 34 37 37 36 33 32 32 31 30 29 29 29 30 31 30 30 32 32 33 34 34 33 34 36
22 23 15 6 4 8 10 18 33 25 27 33 40 45 44 26 22 23 23 25 23 22 22 19 24 28 33 35 33 30 31 31 30 30 29 29 30 31 31 30 31 32 32 33 34 33 33 35 36
18 23 30 35 44 23 39 46 53 50 40 24 20 27 22 22 40 31 27 25 25 19 21 20 22 29 30 31 29 29 30 30 29 29 29 30 30 30 30 30 31 32 33 34 34 33 34 36 37
33 32 21 18 9 20 21 29 32 37 38 43 39 29 34 30 18 19 17 24 28 26 26 24 23 27 30 27 27 28 28 29 29 31 31 30 30 30 29 30 31 31 32 33 34 33 35 36 37
30 32 34 36 28 9 11 16 25 28 25 22 22 29 28 20 18 22 26 17 18 26 27 26 27 29 28 29 28 28 29 31 32 32 31 30 30 29 29 30 31 31 32 33 33 33 35 37 37
32 37 35 17 11 19 16 22 40 38 36 35 38 44 46 48 47 38 29 23 23 24 21 30 31 32 30 29 24 25 30 32 32 31 30 30 29 29 30 30 30 31 32 32 33 34 36 37 37